Regional Weather Roundup
Issued by NWS

Home | Current Version | Previous Version | Text Only | Print | Product List | Glossary On
Versions: 1 2 3 4 5 6 7 8 9 10 11 12 13 14 15 16 17 18 19 20 21 22 23 24 25 26 27 28 29 30 31 32 33 34 35 36 37 38 39 40 41 42 43 44 45 46 47 48 49 50
808
ASUS44 KJAN 010110
RWRMS

MISSISSIPPI HOURLY WEATHER ROUNDUP
NATIONAL WEATHER SERVICE JACKSON MS
700 PM CST SAT FEB 28 2015

NOTE: "FAIR: INDICATES FEW OR NO CLOUDS BELOW 12,000 FEET WITH NO
SIGNIFICANT WEATHER AND/OR OBSTRUCTIONS TO VISIBILITY.

MSZ001>002-007>008-010>013-018>021-025>028-034>036-010200-
NORTHWEST MISSISSIPPI

CITY           SKY/WX    TMP DP  RH WIND       PRES   REMARKS
CLARKSDALE     MOCLDY    41  36  81 NW13      30.37R
CLEVELAND      CLOUDY    45  41  87 NW6       30.35R
GREENWOOD        N/A    N/A N/A N/A MISG      30.35F
GREENVILLE     CLOUDY    47  37  68 NE3       30.32F
OXFORD         FAIR      46  30  53 SE8       30.36F
TUNICA         PTCLDY    37  30  75 NW13      30.36F WCI  29
$$

MSZ003>006-009-014>017-022>024-029>033-037>039-010200-
NORTHEAST MISSISSIPPI

CITY           SKY/WX    TMP DP  RH WIND       PRES   REMARKS
COLUMBUS AFB   CLOUDY    50  35  56 N2        30.37S
CORINTH        MOCLDY    48  30  49 SE6       30.37S
GOLDN TRIANGLE CLOUDY    52  36  54 NE7       30.37R
STARKVILLE     CLOUDY    52  36  54 NE7       30.38R
TUPELO         CLOUDY    49  32  52 CALM      30.38S
$$

MSZ040-058-010200-
CENTRAL MISSISSIPPI

CITY           SKY/WX    TMP DP  RH WIND       PRES   REMARKS
JACKSON INTL   CLOUDY    57  33  40 E7        30.33R
JACKSON HAWKNS CLOUDY    60  31  33 SE5       30.33R
MERIDIAN KEY   CLEAR     49  36  61 CALM      30.37R
MERIDIAN NAS   PTCLDY    55  33  43 NE6       30.38R
VICKSBURG      CLOUDY    49  38  65 N6        30.33R
$$

MSZ059>079-010200-
SOUTH MISSISSIPPI

CITY           SKY/WX    TMP DP  RH WIND       PRES   REMARKS
BROOKHAVEN     FAIR      55  37  50 CALM      30.32F
HATTIESBURG    CLEAR     54  42  64 CALM      30.34R
MCCOMB         PTCLDY    57  36  45 CALM      30.31S
NATCHEZ        CLOUDY    57  37  47 CALM      30.31S
PINE BELT      CLEAR     52  36  54 CALM      30.35R
$$

MSZ080>082-010200-
COASTAL MISSISSIPPI

CITY           SKY/WX    TMP DP  RH WIND       PRES   REMARKS
BAY ST LOUIS   CLEAR     55  46  71 SE8       30.34S
BILOXI         MOCLDY    55  52  90 SE7       30.34S
PASCAGOULA     CLOUDY    55  50  83 SE5       30.36R
GULFPORT       CLOUDY    54  50  86 SE8       30.34S
$$



USA.gov is the U.S. government's official web portal to all federal, state and local government web resources and services.